Location: Arboucave
(43.6130°N, 0.4343°W)
Time: 06:20:28
(UTC+00:00)

Cosmos 676 Rocket - Pass Details

Date: 17 November 2025
Orbit: 750 x 779 km, 74.0° (Epoch: 04 December)

Event Time Altitude Azimuth Distance (km) Brightness Sun altitude
Rises 18:33:20 0° 196° (SSW) 3,247 7.5 -21.4°
Reaches altitude 10° 18:35:43 10° 196° (SSW) 2,323 6.7 -21.8°
Maximum altitude 18:41:00 83° 108° (ESE) 789 3.9 -22.8°
Enters shadow 18:43:13 36° 25° (NNE) 1,214 4.7 -23.2°
